Flag for Germany Weather past 2 weeks in Wittenberg, Saxony-Anhalt, Germany

Now
55 °F

Passing clouds.


Feels Like: 55 °F
Forecast: 56 / 74 °F
Wind: 5 mph from Northeast

Location: Holzdorf

Current Time: Sep 3, 2014 at 2:06:25 AM

Latest Report: Sep 3, 2014 at 1:20 AM


Visibility: N/A

Pressure: 30.24 "Hg

Humidity: 88%

Dew point: 52 °F

Location of WittenbergLocation

Historic Weather in Wittenberg — Graph

°F

Wittenberg temperature yesterday

Maximum temperature yesterday: 63 °F (at 4:20 PM)
Minimum temperature yesterday: 57 °F (at 12:20 AM)
Average temperature yesterday: 59 °F

Past Weeks' High & Low Weather Summary

 TemperatureHumidityPressure
High73 °F (Aug 28, 3:20 PM)100% (Aug 20, 6:20 AM)30.24 "Hg (Aug 20, 6:20 AM)
Low39 °F (Aug 25, 6:20 AM)31% (Aug 22, 3:20 PM)29.71 "Hg (Aug 26, 8:20 AM)
Average58 °F77%29.96 "Hg
* Reported Aug 19 12:20 AM — Sep 3 12:20 AM, Wittenberg, Weather by CustomWeather, © 2014

Note: Actual official high and low records may vary slightly from our data, if they occured in-between our weather recording intervals... More about our weather records

Advertising

Wittenberg weather history for previous 24 hours

 ConditionsComfort  
Time TempWeatherWind HumidityBarometerVisibility
12:20 AM
Sep 3
57 °FPassing clouds.8 mph82%30.24 "HgN/A
11:20 PM
Sep 2
57 °FPartly cloudy.5 mph82%30.24 "HgN/A
10:20 PM57 °FPassing clouds.3 mph88%30.24 "HgN/A
9:20 PM57 °FPartly cloudy.5 mph82%30.24 "HgN/A
8:20 PM59 °FPartly sunny.5 mph77%30.21 "HgN/A
7:20 PM61 °FPartly sunny.8 mph77%30.21 "HgN/A
6:20 PM63 °FBroken clouds.8 mph73%30.18 "HgN/A
5:20 PM63 °FBroken clouds.7 mph73%30.18 "HgN/A
5:00 PM63 °FBroken clouds.7 mph73%30.18 "HgN/A
4:20 PM63 °FBroken clouds.8 mph73%30.18 "HgN/A
3:20 PM61 °FBroken clouds.6 mph77%30.18 "HgN/A
2:20 PM61 °FBroken clouds.6 mph77%30.15 "HgN/A
1:20 PM61 °FPartly sunny.7 mph83%30.15 "HgN/A
12:20 PM59 °FBroken clouds.8 mph94%30.15 "HgN/A
11:20 AM57 °FBroken clouds.6 mph100%30.12 "HgN/A
10:20 AM59 °FLight rain. Fog.6 mph94%30.12 "Hg2 mi
10:03 AM59 °FLight rain. Fog.3 mph94%30.12 "Hg3 mi
9:20 AM59 °FLight rain. Fog.3 mph94%30.09 "Hg1 mi
8:20 AM57 °FLight rain. Fog.2 mph100%30.09 "Hg1 mi
7:20 AM57 °FLight rain. Fog.2 mph100%30.09 "Hg2 mi
6:20 AM57 °FLight rain. Fog.1 mph94%30.07 "Hg1 mi
5:20 AM57 °FLight rain. Fog.1 mph94%30.07 "Hg2 mi
4:20 AM57 °FLight rain. Fog.No wind94%30.07 "Hg2 mi
3:50 AM57 °FLight rain. Fog.1 mph100%30.07 "Hg2 mi
3:20 AM57 °FLight rain. Fog.No wind94%30.07 "Hg3 mi
2:20 AM57 °FLight rain. Fog.No wind94%30.07 "Hg3 mi
Weather by CustomWeather, © 2014

See weather overviewHow to use our weather pages